Reflectivity
-20 -20 -20 -20 -20 -20 -20 -20 -20 -20 -20 -20 -20 -20 -20 -20 -20 -20 -20 -20 -20 -20 -20 -20 -20 -20 -20 -20 -20 -20 -20 -20 -20 -20 -20 -20 -20 -20 -20 -20 -20 -20 -20
-20 -20 -20 -20 -20 -20 -20 -20 -20 -20 -20 -20 -20 -20 -20 -20 -20 -20 -20 -20 -20 -20 -20 -20 -20 -20 -20 -20 -20 -20 -20 -20 -20 -20 -20 -20 -20 -20 -20 -20 -20 -20 -20
-20 -20 -20 -20 -20 -20 -20 -20 -20 -20 -20 -20 -20 -20 -20 -20 -20 -20 -20 -20 -20 -20 -20 -20 -20 -20 -20 -20 -20 -20 -20 -20 -20 -20 -20 -20 -20 -20 -20 -20 -20 -20 -20
-20 -20 -20 -20 -20 -20 -20 -20 -20 -20 -20 -20 -20 -20 -20 -20 -20 -20 -20 -20 -20 -20 -20 -20 -20 -20 -20 -20 -20 -20 -20 -20 -20 -20 -20 -20 -20 -20 -20 -20 -20 -20 -20
-20 -20 -20 -20 -20 -20 -20 -20 -20 -20 -20 -20 -20 -20 -20 -20 -20 -20 -20 -20 -20 -20 -20 -20 -20 -20 -20 -20 -20 -20 -20 -20 -20 -20 -20 -20 -20 -20 -20 -20 -20 -20 -20
-20 -20 -20 -20 -20 -20 -20 -20 -20 -20 -20 -20 -20 -20 -20 -20 -20 -20 -20 -20 -20 -20 -20 -20 -20 -20 -20 -20 -20 -20 -20 -20 -20 -20 -20 -20 -20 -20 -20 -20 -20 -20 -20
-20 -20 -20 -20 -20 -20 -20 -20 -20 -20 -20 -20 -20 -20 -20 -20 -20 -20 -20 -20 -20 -20 -20 -20 -20 -20 -20 -20 -20 -20 -20 -20 -20 -20 -20 -20 -20 -20 -20 -20 -20 -20 -20
-20 -20 -20 -20 -20 -20 -20 -20 -20 -20 -20 -20 -20 -20 -20 -20 -20 -20 -20 -20 -20 -20 -20 -20 -20 -20 -20 -20 -20 -20 -20 -20 -20 -20 -20 -20 -20 -20 -20 -20 -20 -20 -20
-20 -20 -20 -20 -20 -20 -20 -20 -20 -20 -20 -20 -20 -20 -20 -20 -20 -20 -20 -20 -20 -20 -20 -20 -20 -20 -20 -20 -20 -20 -20 -20 -20 -20 -20 -20 -20 -20 -20 -20 -20 -20 -20
-20 -20 -20 -20 -20 -20 -20 -20 -20 -20 -20 -20 -20 -20 -20 -20 -20 -20 -20 -20 -20 -20 -20 -20 -20 -20 -20 -20 -20 -13 -20 -20 -20 -20 -20 -20 -20 -20 -20 -20 -20 -20 -20
-20 -20 -20 -20 -20 -20 -20 -20 -20 -20 -20 -20 -20 -20 -20 -20 -20 -20 -20 -20 -19 -19 -20 -20 -20 -20 -20 -12 13 9 -11 -18 -20 -20 -20 -20 -20 -20 -20 -20 -20 -20 -20
-20 -20 -20 -20 -20 -20 -20 -20 -20 -20 -20 -20 -20 -20 -20 -20 -17 -16 3 -4 -20 -20 -20 -10 3 16 23 19 13 13 10 -20 -20 -20 -20 -20 -20 -20 -20 -20 -20 -20 -20
-20 -20 -20 -20 -20 -20 -20 -20 -20 -13 -2 3 18 16 19 29 27 18 -1 -15 -2 7 16 18 22 26 25 15 15 15 12 8 9 -1 -2 -20 -20 -20 -20 -20 -20 -20 -20
-20 -17 -20 -20 -20 -20 -20 -20 -11 9 19 23 28 25 30 29 26 26 21 22 27 28 29 27 27 17 15 19 18 15 12 -20 -20 -20 -20 -20 -20 -20 -20 -20 -20 -20 -20
-20 -20 -19 -19 -9 -16 -16 9 20 23 15 12 18 22 23 22 22 19 19 17 14 15 17 18 10 9 10 13 14 11 2 -7 -17 -20 -20 -20 -20 -20 -20 -20 -20 -20 -20
-14 -9 -17 5 14 19 20 19 13 12 11 12 12 14 17 17 14 15 14 10 4 -3 1 5 6 11 9 -5 -8 -1 8 -0 1 -2 -20 -20 -20 -20 -16 -1 2 -4 -20
17 17 14 11 13 17 20 21 18 9 11 18 21 19 14 14 14 12 2 -15 -16 -12 -8 -12 -20 -19 -20 -20 -16 -1 -3 -2 6 4 4 -7 -20 -20 -20 -20 -12 -4 7
25 25 26 25 22 21 23 24 21 18 17 17 16 15 13 11 -2 -1 -2 -12 -20 -20 -20 -20 -20 -20 -20 -20 -20 -20 -20 -15 -3 1 1 -9 -18 -8 -13 -11 -20 -6 -20
25 26 26 24 24 23 20 18 16 15 14 14 13 14 12 5 -16 -20 -20 -20 -20 -20 -20 -20 -20 -20 -20 -20 -20 -20 -20 -20 -20 -20 -20 -20 -20 -20 -1 -13 -1 5 -20
17 18 19 20 22 22 21 19 14 13 9 8 12 11 10 2 -20 -20 -20 -20 -20 -20 -20 -20 -20 -20 -20 -20 -20 -20 -20 -20 -20 -20 -20 -20 -20 -7 -1 -0 3 4 1
11 14 15 16 17 16 13 6 -7 -20 -20 -17 -18 -20 -20 -20 -20 -20 -20 -20 -20 -20 -20 -20 -20 -20 -20 -20 -20 -20 -20 -20 -20 -20 -20 -20 -20 -20 -1 5 9 12 7
6 10 8 8 11 12 8 1 -8 -12 -4 -7 -20 -20 -20 -20 -20 -20 -20 -20 -20 -20 -20 -20 -20 -20 -20 -20 -20 -20 -20 -20 -20 -20 -20 -20 -20 -7 -5 -8 -20 -9 5
-1 -0 1 -4 -15 -9 -11 -18 -19 -20 -20 -20 -20 -20 -20 -20 -20 -20 -20 -20 -20 -20 -20 -20 -20 -20 -20 -20 -20 -20 -20 -20 -20 -20 -20 -20 -18 -17 9 10 10 11 11
-2 2 2 0 -7 -20 -20 -20 -20 -20 -20 -20 -20 -20 -20 -20 -20 -20 -20 -20 -20 -20 -20 -20 -20 -20 -20 -20 -20 -20 -20 -20 -20 -20 -20 -20 -20 -20 1 4 10 11 12
-20 -20 -20 -20 -20 -20 -20 -20 -20 -20 -20 -20 -20 -20 -20 -20 -20 -20 -20 -20 -20 -20 -16 -20 -20 -20 -2 -13 0 -13 -6 -1 -10 -5 -2 -7 -20 -20 -9 -20 -20 -11 8
-20 -20 -20 -20 -20 -20 -20 -20 -20 -20 -20 -20 -20 -20 -20 -20 -20 -20 -20 -19 -1 3 6 3 9 3 0 -3 -6 -20 2 8 0 11 13 5 -15 6 13 10 4 -20 -20
Wind_Speed
15 15 18 17 17 16 16 17 16 15 11 9 8 6 6 5 4 4 4 5 5 5 4 3 5 5 5 5 4 4 4 4 2 2 4 5 6 6 6 6 7 8 8
11 14 17 17 18 18 18 17 16 16 12 9 6 4 7 4 4 4 4 4 5 5 4 4 4 5 4 6 5 3 2 3 4 1 1 3 4 3 5 5 5 7 5
13 15 18 19 18 19 19 18 17 16 13 11 7 6 6 5 5 5 4 4 5 5 5 5 4 5 4 5 5 5 4 2 3 6 3 2 1 1 3 5 4 5 5
9 13 17 19 20 18 16 16 16 15 13 13 10 11 7 8 6 7 5 5 5 5 5 5 5 5 4 5 5 4 3 1 2 2 3 4 3 2 2 3 3 4 5
7 13 16 17 17 16 15 15 15 14 13 13 11 9 8 5 7 7 10 7 6 5 5 5 5 5 4 5 5 5 5 3 3 3 1 2 2 2 1 2 2 2 3
1 7 11 13 13 12 14 14 15 14 13 12 12 11 10 8 8 8 8 7 6 5 6 5 4 4 4 5 5 5 5 4 4 3 3 2 2 1 1 2 1 3 2
2 5 9 11 13 15 14 13 14 12 12 12 11 10 9 9 10 10 8 9 7 6 6 6 5 4 4 4 5 5 5 3 3 3 2 2 2 0 0 1 1 2 1
4 3 2 8 10 13 14 13 13 12 11 11 10 8 8 6 6 9 7 6 6 6 7 6 6 6 5 4 4 4 3 3 3 3 2 1 1 1 1 1 2 3 4
4 4 4 5 9 10 11 12 12 11 10 10 8 7 7 7 6 7 7 6 5 5 6 6 6 6 5 4 4 3 4 2 2 1 1 1 1 1 1 2 3 3 3
6 5 6 7 7 7 8 9 10 10 10 9 8 7 7 7 7 7 8 8 7 8 7 6 6 5 4 4 3 3 3 2 2 2 3 2 2 2 2 2 3 3 5
7 6 6 7 8 8 8 9 9 9 8 7 8 9 8 8 8 8 8 9 8 8 7 6 5 4 4 4 4 4 4 5 4 4 4 4 4 3 3 3 3 4 5
8 8 8 8 8 9 8 9 8 8 8 8 8 8 7 8 9 8 8 8 8 6 5 4 3 4 5 5 5 6 5 5 5 5 5 5 4 6 5 5 6 6 6
11 9 8 8 8 8 9 8 8 8 6 6 6 6 4 5 6 5 5 5 5 5 5 4 5 5 4 4 5 4 6 6 5 5 6 6 6 7 6 7 6 6 6
13 10 8 8 8 8 8 9 8 6 7 6 6 6 4 4 3 4 4 5 4 4 3 3 3 2 3 4 6 6 6 7 7 7 7 7 8 8 8 7 8 7 7
13 11 10 8 8 9 8 8 7 7 7 8 8 7 6 6 6 5 5 4 4 3 3 3 3 2 3 4 6 7 8 9 9 9 9 9 10 11 10 6 8 8 8
10 10 11 11 9 8 7 7 7 8 7 8 7 6 7 7 5 5 5 5 4 4 3 2 3 4 4 7 10 11 8 9 11 10 10 9 11 13 16 17 18 14 10
12 11 10 9 9 8 6 6 5 7 7 6 6 5 4 4 4 3 3 2 2 1 2 3 4 5 6 9 12 14 10 10 10 11 9 8 8 10 11 14 17 19 21
10 9 7 6 6 5 6 5 5 5 5 6 5 3 2 2 1 1 0 2 3 4 4 5 5 6 6 11 12 14 12 11 11 10 11 11 11 11 12 11 12 14 13
9 8 7 6 5 5 5 4 4 4 3 3 2 1 3 3 3 4 3 3 4 5 5 6 6 7 8 11 13 13 11 12 13 11 12 13 12 15 18 13 14 15 14
8 8 7 4 4 5 6 4 2 1 1 1 2 3 4 5 5 5 5 4 4 6 6 7 8 10 10 13 14 13 9 12 10 12 13 17 16 20 20 14 14 14 14
9 8 7 6 4 4 7 6 4 4 2 3 5 4 5 5 6 6 5 5 6 6 7 8 8 10 11 12 16 16 11 10 10 10 10 9 19 20 20 23 14 15 14
8 8 7 6 5 5 6 7 6 3 4 6 7 6 6 5 5 7 7 7 7 8 8 8 8 8 9 12 13 16 17 17 12 12 10 12 22 22 23 20 22 25 22
9 8 7 8 6 6 6 7 6 6 7 7 8 8 7 7 7 8 8 7 7 6 7 7 7 7 7 7 12 15 16 19 13 10 15 24 24 25 22 27 26 25 12
9 8 9 8 9 7 7 7 9 7 7 9 9 8 8 8 7 6 6 6 7 7 7 7 8 7 7 8 7 8 9 14 11 14 13 16 20 23 21 18 15 11 10
10 8 10 10 11 10 9 9 8 8 9 9 9 8 7 8 8 7 7 7 8 9 8 8 9 9 9 9 12 13 10 10 13 15 11 11 11 11 11 10 11 10 10
11 12 12 12 13 12 12 12 10 9 9 9 8 8 8 8 6 7 8 12 16 19 20 20 15 10 17 19 20 21 22 22 23 12 10 10 10 10 10 10 10 10 12
Wind_Direction
218 195 190 182 177 175 173 175 171 169 165 166 160 161 161 152 138 116 110 102 91 80 86 85 77 73 73 72 65 76 72 76 41 147 106 89 82 71 66 63 53 50 47
206 189 184 179 179 175 178 177 178 172 176 172 172 163 154 156 134 131 116 104 105 99 90 99 88 81 91 75 63 50 121 77 23 2 279 180 157 101 60 53 57 51 48
197 183 180 180 178 181 181 182 179 176 176 172 149 132 124 131 152 154 140 126 124 115 112 101 98 86 80 75 62 42 22 100 62 39 344 232 12 212 121 69 58 44 43
199 185 181 183 185 184 182 181 176 176 177 173 175 175 181 169 171 165 149 144 141 127 118 114 104 94 92 93 78 59 49 36 94 103 41 51 7 319 194 133 79 60 46
203 193 189 186 187 181 179 178 177 178 177 182 186 183 183 160 153 156 155 155 146 138 128 123 115 111 109 93 94 83 61 47 61 39 78 63 61 47 302 300 133 143 48
219 200 186 184 184 174 178 175 176 179 177 184 192 195 190 169 162 164 165 166 162 155 146 139 126 120 121 115 100 90 74 72 75 68 63 35 344 46 301 271 342 320 43
104 169 184 184 178 180 177 175 175 175 180 185 191 196 192 181 175 172 176 170 168 170 160 153 150 135 120 113 113 107 101 89 91 84 93 97 93 32 360 271 279 300 96
110 101 173 186 184 181 176 173 177 170 177 179 181 181 184 187 186 181 173 180 174 165 157 152 145 142 139 131 126 120 116 131 123 126 122 146 132 161 200 277 261 256 227
134 112 112 155 166 171 174 174 170 166 167 167 165 169 175 175 176 167 165 157 152 148 155 155 151 152 151 151 149 139 137 152 131 120 182 218 157 187 223 242 267 279 286
149 126 115 121 124 139 150 156 161 160 157 156 156 153 146 145 141 151 151 151 151 154 160 159 160 156 159 161 169 155 146 183 166 182 226 229 200 200 224 236 247 257 274
158 139 123 120 121 122 127 128 135 139 140 144 141 142 132 133 140 140 143 148 148 153 155 156 160 165 175 199 204 193 187 199 188 210 225 238 231 236 228 238 246 249 248
161 145 132 125 116 111 110 107 107 115 118 116 114 106 114 126 124 128 126 131 125 116 119 131 176 205 225 240 249 246 232 217 211 223 237 244 235 243 245 245 249 250 252
163 157 147 133 121 112 110 105 109 115 109 105 109 109 115 119 129 129 123 134 144 155 165 185 199 209 223 258 278 276 275 265 256 235 238 243 242 243 243 239 246 244 247
166 158 146 127 113 104 96 93 75 75 96 103 99 101 98 97 111 126 135 137 142 157 174 189 165 180 206 232 249 260 262 260 263 263 257 254 248 248 251 249 250 250 253
160 153 136 119 107 102 93 87 79 64 75 90 89 82 76 70 71 77 83 93 117 130 134 160 162 180 228 236 240 248 260 267 266 259 255 251 252 255 254 252 248 246 249
140 125 112 103 93 84 82 82 82 76 71 83 81 77 79 73 65 67 74 83 89 90 103 150 202 224 232 248 259 266 267 261 260 261 258 251 253 255 251 245 243 241 247
64 67 73 79 82 76 66 61 71 83 85 80 76 78 82 95 92 77 59 56 46 347 255 253 257 261 263 263 269 271 267 264 264 266 262 262 263 259 260 255 260 262 253
60 59 70 76 65 69 73 65 44 63 84 80 79 69 55 100 70 45 233 273 282 273 271 267 267 264 262 265 270 273 273 268 259 262 266 263 260 261 264 262 261 258 254
43 40 38 51 43 32 36 48 62 75 92 108 134 325 303 275 258 246 244 264 273 268 267 272 270 270 272 276 281 278 274 266 264 260 260 258 258 258 261 259 259 255 255
35 25 16 27 26 6 351 357 351 237 213 229 301 309 294 287 283 284 280 280 263 268 270 272 271 272 270 268 269 273 269 269 267 264 262 259 262 258 255 249 255 254 254
11 22 360 345 349 334 323 323 307 270 278 295 284 272 264 275 282 280 279 272 265 267 270 267 265 264 265 268 270 269 266 263 267 267 265 266 259 260 260 259 255 251 255
351 347 329 320 311 304 313 309 296 293 289 297 290 280 272 278 285 273 265 256 259 257 255 261 269 264 263 266 270 272 268 267 263 265 271 267 265 264 261 260 258 260 259
324 324 318 312 301 295 298 292 298 301 296 289 280 280 274 266 258 259 257 254 249 256 267 267 270 272 269 268 272 276 278 277 276 278 276 273 269 261 260 264 261 258 254
320 319 308 299 298 298 293 289 290 288 281 278 277 272 269 268 263 252 264 268 265 263 262 259 261 266 272 272 275 278 280 279 278 271 265 264 266 267 264 263 259 261 255
314 308 302 302 301 307 298 293 290 292 282 278 275 279 280 273 267 261 265 259 257 253 256 259 263 269 268 265 261 262 258 255 254 261 254 253 254 253 257 255 256 256 253
311 309 307 305 304 307 304 301 296 285 279 279 274 266 264 267 272 274 271 264 268 268 268 274 273 273 279 282 285 284 286 287 282 278 274 270 267 264 262 255 253 252 252